User: anonymous   Login
Location: Bridgewater
(44.3670°N, 64.5170°W)
Time: 05:59:30
(UTC-04:00)
Language:

OPAL - Orbit

View from above orbital plane
View from above orbital plane
View from above satellite
View from above satellite

Ground track
Ground track

The orbit data is extracted from the following two-line orbital elements,

1 26063U 00004C   17017.16186044 -.00000010  00000-0  16637-4 0  9996
2 26063 100.2161 352.7065 0036722  15.2156 345.0120 14.36649393889691
Epoch (UTC): 17 January 2017 03:53:04
Eccentricity: 0.0036722
inclination: 100.2161°
perigee height: 743 km
apogee height: 796 km
right ascension of ascending node: 352.7065°
argument of perigee: 15.2156°
revolutions per day: 14.36649393
mean anomaly at epoch: 345.0120°
orbit number at epoch: 88969

The dashed part of the orbit path shows where the satellite is in the earth's shadow,  

DLR